World > North America > United States > Virginia

Hourly McKenney, VA Regional Weather

Feedback E-mail the Weather

Quick WX

McKenney, VA Weather Maps

°F °C°F °C
Mckenney Weather Map
UTC Time: 7/7/2022, 05:25
Your Time:

McKenney, VA Regional Weather

Expires:202207070600;;879589
ASUS41 KAKQ 070515
RWRAKQ

REGIONAL WEATHER ROUNDUP
NATIONAL WEATHER SERVICE WAKEFIELD VA
100 AM EDT THU JUL 07 2022

Note: "fair" indicates few or no clouds below 12,000 feet with no
significant weather and/or obstructions to visibility. * = Denotes
station may not report precipitation (e.g., rain,snow,etc.),
thunder or fog.


VAZ048-049-060>072-079>083-070600-
CENTRAL AND SOUTH CENTRAL VIRGINIA
  
CITY           SKY/WX    TMP DP  RH WIND       PRES   REMARKS
RICHMOND       CLOUDY    76  72  87 SW8       29.90S                  
CHESTERFIELD*  FAIR      73  73 100 CALM      29.90F                  
PETERSBURG*    CLOUDY    73  72  96 CALM      29.91F                  
HANOVER        CLOUDY    76  72  87 SW6       29.91R                  
TAPPAHANNOCK*  NOT AVBL                                               
QUINTON*       FAIR      74  73  94 S3        29.89F                  
CHARLOTTSVILLE MOCLDY    74  70  87 CALM      29.89F                  
GORDONSVILLE*  FAIR      73  71  93 CALM      29.90S                  
ORANGE*        MOCLDY    73  72  94 CALM      29.91S                  
LOUISA*        CLOUDY    72  72  98 SW3       29.90F                  
BUMPASS*       FAIR      73  71  93 CALM      29.90S                  
FARMVILLE*     CLOUDY    72  72  99 S3        29.90F                  
CREWE*         FAIR      71  69  91 CALM      29.91F                  
FORT PICKETT*  FAIR      72  72 100 SW8       29.92F                  
CHASE CITY*    FAIR      72  72 100 CALM      29.94S                  
CLARKSVILLE*   FAIR     N/A N/A N/A NW3       29.93R                  
SOUTH HILL*    CLOUDY    72  69  93 CALM      29.99R                  
LAWRENCEVILLE*   N/A     73  72  97 CALM      29.92F                  
EMPORIA*       CLOUDY    73  72  99 CALM      29.93F                  
$$


SKY/WX - Weather  TMP - Temperature  DP - Dew Point  RH - Humidity
WIND - Wind Direction/Speed PRES - Barometric Pressure VSB - Visibility
WCI - Wind Chill Index E13G22 Wind - East Wind 13 mph/Gusts of 22 mph

Trending Headlines

McKenney Radar Loop



McKenney Quick Facts


National Two Day Weather Forecast


E-mail the McKenney Weather Forecast

Voice your opinion or tell us about page issues...